<?xml version="1.0" encoding="UTF-8" standalone="no" ?>
<gpx xmlns="http://www.topografix.com/GPX/1/1" xmlns:xsi="http://www.w3.org/2001/XMLSchema-instance" xsi:schemaLocation="http://www.topografix.com/GPX/1/1 http://www.topografix.com/GPX/1/1/gpx.xsd" version="1.1" creator="VisuGPX - https://www.visugpx.com">
  <metadata>
    <name>Corme Royal</name>
  </metadata>
  <trk>
    <name><![CDATA[randogps17-147]]></name>
    <trkseg>
      <trkpt lat="45.7462" lon="-0.81226">
        <ele>39.328125</ele>
        <time>2014-08-25T09:39:53Z</time>
      </trkpt>
      <trkpt lat="45.74643" lon="-0.81266">
        <ele>39.238281</ele>
        <time>2014-08-25T09:39:53Z</time>
      </trkpt>
      <trkpt lat="45.74649" lon="-0.81258">
        <ele>39.394531</ele>
        <time>2014-08-25T09:39:53Z</time>
      </trkpt>
      <trkpt lat="45.74667" lon="-0.81235">
        <ele>39.875</ele>
        <time>2014-08-25T09:39:53Z</time>
      </trkpt>
      <trkpt lat="45.74694" lon="-0.81206">
        <ele>40.273438</ele>
      </trkpt>
      <trkpt lat="45.74742" lon="-0.81165">
        <ele>41</ele>
      </trkpt>
      <trkpt lat="45.74771" lon="-0.81147">
        <ele>41</ele>
        <time>2014-08-25T09:39:53Z</time>
      </trkpt>
      <trkpt lat="45.74794" lon="-0.81137">
        <ele>41</ele>
        <time>2014-08-25T09:39:53Z</time>
      </trkpt>
      <trkpt lat="45.74805" lon="-0.81136">
        <ele>41</ele>
      </trkpt>
      <trkpt lat="45.74898" lon="-0.81162">
        <ele>40.128906</ele>
        <time>2014-08-25T09:39:53Z</time>
      </trkpt>
      <trkpt lat="45.7491" lon="-0.81168">
        <ele>40.035156</ele>
      </trkpt>
      <trkpt lat="45.74917" lon="-0.81176">
        <ele>39.964844</ele>
      </trkpt>
      <trkpt lat="45.74922" lon="-0.81183">
        <ele>39.863281</ele>
      </trkpt>
      <trkpt lat="45.74923" lon="-0.81192">
        <ele>39.726562</ele>
      </trkpt>
      <trkpt lat="45.7494" lon="-0.81193">
        <ele>39.640625</ele>
      </trkpt>
      <trkpt lat="45.74951" lon="-0.81195">
        <ele>39.59375</ele>
        <time>2014-08-25T09:39:53Z</time>
      </trkpt>
      <trkpt lat="45.74968" lon="-0.81201">
        <ele>39.5</ele>
        <time>2014-08-25T09:39:53Z</time>
      </trkpt>
      <trkpt lat="45.74981" lon="-0.81201">
        <ele>39.488281</ele>
        <time>2014-08-25T09:39:53Z</time>
      </trkpt>
      <trkpt lat="45.75018" lon="-0.81189">
        <ele>39.351562</ele>
        <time>2014-08-25T09:39:53Z</time>
      </trkpt>
      <trkpt lat="45.75028" lon="-0.81188">
        <ele>39.230469</ele>
      </trkpt>
      <trkpt lat="45.75037" lon="-0.81177">
        <ele>39.148438</ele>
      </trkpt>
      <trkpt lat="45.751" lon="-0.81131">
        <ele>39.023438</ele>
      </trkpt>
      <trkpt lat="45.7514" lon="-0.81098">
        <ele>39</ele>
      </trkpt>
      <trkpt lat="45.75168" lon="-0.8108">
        <ele>39</ele>
        <time>2014-08-25T09:39:53Z</time>
      </trkpt>
      <trkpt lat="45.75226" lon="-0.81046">
        <ele>39</ele>
        <time>2014-08-25T09:39:53Z</time>
      </trkpt>
      <trkpt lat="45.75262" lon="-0.81017">
        <ele>39</ele>
        <time>2014-08-25T09:39:53Z</time>
      </trkpt>
      <trkpt lat="45.75276" lon="-0.8101">
        <ele>38.855469</ele>
      </trkpt>
      <trkpt lat="45.75312" lon="-0.81003">
        <ele>38.257812</ele>
      </trkpt>
      <trkpt lat="45.75338" lon="-0.80999">
        <ele>38.101562</ele>
      </trkpt>
      <trkpt lat="45.75364" lon="-0.8099">
        <ele>38.078125</ele>
      </trkpt>
      <trkpt lat="45.75382" lon="-0.80982">
        <ele>38</ele>
        <time>2014-08-25T09:39:53Z</time>
      </trkpt>
      <trkpt lat="45.75406" lon="-0.80965">
        <ele>38</ele>
        <time>2014-08-25T09:39:53Z</time>
      </trkpt>
      <trkpt lat="45.75433" lon="-0.80939">
        <ele>38</ele>
      </trkpt>
      <trkpt lat="45.75456" lon="-0.80908">
        <ele>37.613281</ele>
      </trkpt>
      <trkpt lat="45.75473" lon="-0.80888">
        <ele>37.398438</ele>
      </trkpt>
      <trkpt lat="45.75488" lon="-0.80878">
        <ele>37.339844</ele>
        <time>2014-08-25T09:39:53Z</time>
      </trkpt>
      <trkpt lat="45.75511" lon="-0.8087">
        <ele>36.910156</ele>
        <time>2014-08-25T09:39:53Z</time>
      </trkpt>
      <trkpt lat="45.75522" lon="-0.80865">
        <ele>36.636719</ele>
      </trkpt>
      <trkpt lat="45.75548" lon="-0.80866">
        <ele>35.960938</ele>
      </trkpt>
      <trkpt lat="45.75552" lon="-0.80869">
        <ele>35.886719</ele>
      </trkpt>
      <trkpt lat="45.75556" lon="-0.80875">
        <ele>35.808594</ele>
      </trkpt>
      <trkpt lat="45.75561" lon="-0.80889">
        <ele>35.714844</ele>
      </trkpt>
      <trkpt lat="45.7558" lon="-0.80962">
        <ele>35.511719</ele>
      </trkpt>
      <trkpt lat="45.75586" lon="-0.8098">
        <ele>35.652344</ele>
        <time>2014-08-25T09:39:53Z</time>
      </trkpt>
      <trkpt lat="45.75593" lon="-0.80989">
        <ele>35.726562</ele>
        <time>2014-08-25T09:39:53Z</time>
      </trkpt>
      <trkpt lat="45.75603" lon="-0.80989">
        <ele>35.671875</ele>
        <time>2014-08-25T09:39:53Z</time>
      </trkpt>
      <trkpt lat="45.75622" lon="-0.80984">
        <ele>35.375</ele>
        <time>2014-08-25T09:39:53Z</time>
      </trkpt>
      <trkpt lat="45.75657" lon="-0.80978">
        <ele>34.996094</ele>
      </trkpt>
      <trkpt lat="45.7572" lon="-0.80968">
        <ele>33.113281</ele>
      </trkpt>
      <trkpt lat="45.75732" lon="-0.80961">
        <ele>32.761719</ele>
        <time>2014-08-25T09:39:53Z</time>
      </trkpt>
      <trkpt lat="45.75743" lon="-0.8095">
        <ele>32.433594</ele>
        <time>2014-08-25T09:39:53Z</time>
      </trkpt>
      <trkpt lat="45.75766" lon="-0.80897">
        <ele>31.0625</ele>
        <time>2014-08-25T09:39:53Z</time>
      </trkpt>
      <trkpt lat="45.75775" lon="-0.80881">
        <ele>30.597656</ele>
      </trkpt>
      <trkpt lat="45.75803" lon="-0.8085">
        <ele>29.535156</ele>
        <time>2014-08-25T09:39:53Z</time>
      </trkpt>
      <trkpt lat="45.75822" lon="-0.80884">
        <ele>29.808594</ele>
        <time>2014-08-25T09:39:53Z</time>
      </trkpt>
      <trkpt lat="45.7583" lon="-0.80901">
        <ele>29.96875</ele>
      </trkpt>
      <trkpt lat="45.75833" lon="-0.80914">
        <ele>30.097656</ele>
      </trkpt>
      <trkpt lat="45.75839" lon="-0.80925">
        <ele>30.09375</ele>
      </trkpt>
      <trkpt lat="45.7585" lon="-0.80939">
        <ele>29.9375</ele>
        <time>2014-08-25T09:39:53Z</time>
      </trkpt>
      <trkpt lat="45.75907" lon="-0.81062">
        <ele>29.496094</ele>
      </trkpt>
      <trkpt lat="45.75942" lon="-0.81142">
        <ele>29.3125</ele>
      </trkpt>
      <trkpt lat="45.75957" lon="-0.81176">
        <ele>29.644531</ele>
      </trkpt>
      <trkpt lat="45.75975" lon="-0.81206">
        <ele>29.859375</ele>
      </trkpt>
      <trkpt lat="45.76058" lon="-0.81323">
        <ele>29.773438</ele>
        <time>2014-08-25T09:39:53Z</time>
      </trkpt>
      <trkpt lat="45.76101" lon="-0.81382">
        <ele>30.769531</ele>
      </trkpt>
      <trkpt lat="45.76153" lon="-0.81444">
        <ele>31.992188</ele>
      </trkpt>
      <trkpt lat="45.76168" lon="-0.81456">
        <ele>32</ele>
        <time>2014-08-25T09:39:53Z</time>
      </trkpt>
      <trkpt lat="45.76178" lon="-0.81462">
        <ele>32</ele>
        <time>2014-08-25T09:39:53Z</time>
      </trkpt>
      <trkpt lat="45.76201" lon="-0.81476">
        <ele>32</ele>
      </trkpt>
      <trkpt lat="45.76209" lon="-0.81487">
        <ele>32</ele>
        <time>2014-08-25T09:39:53Z</time>
      </trkpt>
      <trkpt lat="45.76216" lon="-0.81501">
        <ele>31.996094</ele>
        <time>2014-08-25T09:39:53Z</time>
      </trkpt>
      <trkpt lat="45.76301" lon="-0.81446">
        <ele>30.921875</ele>
      </trkpt>
      <trkpt lat="45.76333" lon="-0.81426">
        <ele>30.566406</ele>
      </trkpt>
      <trkpt lat="45.76341" lon="-0.81424">
        <ele>30.515625</ele>
      </trkpt>
      <trkpt lat="45.76353" lon="-0.81426">
        <ele>30.566406</ele>
        <time>2014-08-25T09:39:53Z</time>
      </trkpt>
      <trkpt lat="45.76394" lon="-0.81458">
        <ele>31.5</ele>
        <time>2014-08-25T09:39:53Z</time>
      </trkpt>
      <trkpt lat="45.76424" lon="-0.81472">
        <ele>32.289062</ele>
        <time>2014-08-25T09:39:53Z</time>
      </trkpt>
      <trkpt lat="45.76432" lon="-0.81477">
        <ele>32.457031</ele>
      </trkpt>
      <trkpt lat="45.76445" lon="-0.81479">
        <ele>32.410156</ele>
      </trkpt>
      <trkpt lat="45.76549" lon="-0.81483">
        <ele>31.917969</ele>
        <time>2014-08-25T09:39:53Z</time>
      </trkpt>
      <trkpt lat="45.7659" lon="-0.81487">
        <ele>31.183594</ele>
      </trkpt>
      <trkpt lat="45.76621" lon="-0.81491">
        <ele>30.730469</ele>
      </trkpt>
      <trkpt lat="45.76632" lon="-0.81491">
        <ele>30.582031</ele>
      </trkpt>
      <trkpt lat="45.76642" lon="-0.81484">
        <ele>30.554688</ele>
        <time>2014-08-25T09:39:53Z</time>
      </trkpt>
      <trkpt lat="45.76645" lon="-0.81477">
        <ele>30.613281</ele>
        <time>2014-08-25T09:39:53Z</time>
      </trkpt>
      <trkpt lat="45.76678" lon="-0.81375">
        <ele>30.246094</ele>
      </trkpt>
      <trkpt lat="45.76706" lon="-0.81299">
        <ele>29.023438</ele>
      </trkpt>
      <trkpt lat="45.76719" lon="-0.81301">
        <ele>28.859375</ele>
      </trkpt>
      <trkpt lat="45.76737" lon="-0.81304">
        <ele>28.546875</ele>
      </trkpt>
      <trkpt lat="45.7676" lon="-0.81311">
        <ele>28.128906</ele>
      </trkpt>
      <trkpt lat="45.76778" lon="-0.81317">
        <ele>27.808594</ele>
      </trkpt>
      <trkpt lat="45.76808" lon="-0.81333">
        <ele>27.265625</ele>
      </trkpt>
      <trkpt lat="45.76863" lon="-0.81373">
        <ele>26.273438</ele>
      </trkpt>
      <trkpt lat="45.76932" lon="-0.81422">
        <ele>25.019531</ele>
      </trkpt>
      <trkpt lat="45.76997" lon="-0.81467">
        <ele>25.300781</ele>
      </trkpt>
      <trkpt lat="45.77066" lon="-0.81516">
        <ele>25.613281</ele>
      </trkpt>
      <trkpt lat="45.77074" lon="-0.81502">
        <ele>25.410156</ele>
      </trkpt>
      <trkpt lat="45.77092" lon="-0.81481">
        <ele>24.691406</ele>
      </trkpt>
      <trkpt lat="45.77191" lon="-0.81378">
        <ele>22.050781</ele>
      </trkpt>
      <trkpt lat="45.77206" lon="-0.81362">
        <ele>21.511719</ele>
      </trkpt>
      <trkpt lat="45.77233" lon="-0.81333">
        <ele>20.886719</ele>
      </trkpt>
      <trkpt lat="45.7726" lon="-0.81314">
        <ele>20.542969</ele>
      </trkpt>
      <trkpt lat="45.77274" lon="-0.81297">
        <ele>20.199219</ele>
      </trkpt>
      <trkpt lat="45.77286" lon="-0.81274">
        <ele>20.0625</ele>
      </trkpt>
      <trkpt lat="45.77294" lon="-0.81252">
        <ele>20.28125</ele>
      </trkpt>
      <trkpt lat="45.77314" lon="-0.81274">
        <ele>20.148438</ele>
      </trkpt>
      <trkpt lat="45.77325" lon="-0.81285">
        <ele>20</ele>
      </trkpt>
      <trkpt lat="45.77336" lon="-0.81292">
        <ele>20</ele>
      </trkpt>
      <trkpt lat="45.77352" lon="-0.81297">
        <ele>20</ele>
      </trkpt>
      <trkpt lat="45.77382" lon="-0.81304">
        <ele>20.082031</ele>
      </trkpt>
      <trkpt lat="45.77393" lon="-0.81307">
        <ele>20.28125</ele>
      </trkpt>
      <trkpt lat="45.7741" lon="-0.81316">
        <ele>20.585938</ele>
      </trkpt>
      <trkpt lat="45.77418" lon="-0.81328">
        <ele>20.730469</ele>
        <time>2014-08-25T09:39:53Z</time>
      </trkpt>
      <trkpt lat="45.7742" lon="-0.81341">
        <ele>20.746094</ele>
        <time>2014-08-25T09:39:53Z</time>
      </trkpt>
      <trkpt lat="45.7742" lon="-0.81409">
        <ele>20.496094</ele>
        <time>2014-08-25T09:39:53Z</time>
      </trkpt>
      <trkpt lat="45.77424" lon="-0.81428">
        <ele>20.761719</ele>
        <time>2014-08-25T09:39:53Z</time>
      </trkpt>
      <trkpt lat="45.77434" lon="-0.81442">
        <ele>20.84375</ele>
        <time>2014-08-25T09:39:53Z</time>
      </trkpt>
      <trkpt lat="45.77484" lon="-0.81481">
        <ele>21.601562</ele>
      </trkpt>
      <trkpt lat="45.77493" lon="-0.81488">
        <ele>21.664062</ele>
      </trkpt>
      <trkpt lat="45.77513" lon="-0.81515">
        <ele>22.257812</ele>
      </trkpt>
      <trkpt lat="45.77518" lon="-0.81576">
        <ele>23.742188</ele>
        <time>2014-08-25T09:39:53Z</time>
      </trkpt>
      <trkpt lat="45.77515" lon="-0.81596">
        <ele>24.15625</ele>
        <time>2014-08-25T09:39:53Z</time>
      </trkpt>
      <trkpt lat="45.77514" lon="-0.81615">
        <ele>24.507812</ele>
        <time>2014-08-25T09:39:53Z</time>
      </trkpt>
      <trkpt lat="45.7751" lon="-0.81635">
        <ele>25.0625</ele>
        <time>2014-08-25T09:39:53Z</time>
      </trkpt>
      <trkpt lat="45.77511" lon="-0.81642">
        <ele>25.226562</ele>
        <time>2014-08-25T09:39:53Z</time>
      </trkpt>
      <trkpt lat="45.77516" lon="-0.81649">
        <ele>25.378906</ele>
        <time>2014-08-25T09:39:53Z</time>
      </trkpt>
      <trkpt lat="45.77546" lon="-0.81716">
        <ele>25.976562</ele>
      </trkpt>
      <trkpt lat="45.77566" lon="-0.81761">
        <ele>25.601562</ele>
      </trkpt>
      <trkpt lat="45.77611" lon="-0.81813">
        <ele>24.273438</ele>
      </trkpt>
      <trkpt lat="45.77628" lon="-0.81834">
        <ele>23.585938</ele>
      </trkpt>
      <trkpt lat="45.77631" lon="-0.81839">
        <ele>23.4375</ele>
      </trkpt>
      <trkpt lat="45.7763" lon="-0.81857">
        <ele>23.453125</ele>
      </trkpt>
      <trkpt lat="45.77601" lon="-0.81895">
        <ele>23.972656</ele>
      </trkpt>
      <trkpt lat="45.77582" lon="-0.81931">
        <ele>24</ele>
      </trkpt>
      <trkpt lat="45.77578" lon="-0.81953">
        <ele>24.011719</ele>
      </trkpt>
      <trkpt lat="45.77574" lon="-0.81984">
        <ele>24.050781</ele>
      </trkpt>
      <trkpt lat="45.77571" lon="-0.82036">
        <ele>23.707031</ele>
      </trkpt>
      <trkpt lat="45.7757" lon="-0.82073">
        <ele>23.460938</ele>
      </trkpt>
      <trkpt lat="45.77563" lon="-0.82092">
        <ele>23.332031</ele>
      </trkpt>
      <trkpt lat="45.77521" lon="-0.82164">
        <ele>25.125</ele>
      </trkpt>
      <trkpt lat="45.77655" lon="-0.82283">
        <ele>28.996094</ele>
      </trkpt>
      <trkpt lat="45.77722" lon="-0.8233">
        <ele>30.746094</ele>
      </trkpt>
      <trkpt lat="45.77642" lon="-0.82521">
        <ele>30.832031</ele>
      </trkpt>
      <trkpt lat="45.77564" lon="-0.82729">
        <ele>33</ele>
      </trkpt>
      <trkpt lat="45.77496" lon="-0.82901">
        <ele>35.125</ele>
      </trkpt>
      <trkpt lat="45.7748" lon="-0.82946">
        <ele>35.945312</ele>
      </trkpt>
      <trkpt lat="45.77478" lon="-0.82959">
        <ele>35.964844</ele>
      </trkpt>
      <trkpt lat="45.77475" lon="-0.82974">
        <ele>35.894531</ele>
      </trkpt>
      <trkpt lat="45.77461" lon="-0.82983">
        <ele>35.703125</ele>
      </trkpt>
      <trkpt lat="45.77445" lon="-0.83001">
        <ele>35.269531</ele>
      </trkpt>
      <trkpt lat="45.77429" lon="-0.83012">
        <ele>34.863281</ele>
      </trkpt>
      <trkpt lat="45.7741" lon="-0.83015">
        <ele>34.734375</ele>
      </trkpt>
      <trkpt lat="45.7738" lon="-0.83">
        <ele>35.09375</ele>
      </trkpt>
      <trkpt lat="45.77366" lon="-0.82972">
        <ele>35.371094</ele>
      </trkpt>
      <trkpt lat="45.77347" lon="-0.82948">
        <ele>35.484375</ele>
      </trkpt>
      <trkpt lat="45.77319" lon="-0.8292">
        <ele>36.042969</ele>
      </trkpt>
      <trkpt lat="45.77272" lon="-0.82883">
        <ele>36.984375</ele>
      </trkpt>
      <trkpt lat="45.77237" lon="-0.82846">
        <ele>36.46875</ele>
      </trkpt>
      <trkpt lat="45.77187" lon="-0.82782">
        <ele>35.570312</ele>
      </trkpt>
      <trkpt lat="45.77172" lon="-0.82758">
        <ele>35.304688</ele>
      </trkpt>
      <trkpt lat="45.77163" lon="-0.82742">
        <ele>35.128906</ele>
      </trkpt>
      <trkpt lat="45.77149" lon="-0.82702">
        <ele>35.410156</ele>
      </trkpt>
      <trkpt lat="45.77142" lon="-0.82681">
        <ele>35.625</ele>
      </trkpt>
      <trkpt lat="45.77136" lon="-0.82662">
        <ele>35.714844</ele>
      </trkpt>
      <trkpt lat="45.77127" lon="-0.82646">
        <ele>35.726562</ele>
      </trkpt>
      <trkpt lat="45.7712" lon="-0.82635">
        <ele>35.78125</ele>
      </trkpt>
      <trkpt lat="45.77104" lon="-0.82616">
        <ele>36</ele>
      </trkpt>
      <trkpt lat="45.77082" lon="-0.8259">
        <ele>36</ele>
      </trkpt>
      <trkpt lat="45.77062" lon="-0.82564">
        <ele>36</ele>
      </trkpt>
      <trkpt lat="45.77045" lon="-0.82541">
        <ele>35.996094</ele>
      </trkpt>
      <trkpt lat="45.7703" lon="-0.82519">
        <ele>36</ele>
      </trkpt>
      <trkpt lat="45.77009" lon="-0.8249">
        <ele>36</ele>
      </trkpt>
      <trkpt lat="45.76996" lon="-0.82467">
        <ele>36</ele>
      </trkpt>
      <trkpt lat="45.76987" lon="-0.82449">
        <ele>35.988281</ele>
      </trkpt>
      <trkpt lat="45.76978" lon="-0.82427">
        <ele>35.597656</ele>
      </trkpt>
      <trkpt lat="45.76971" lon="-0.82399">
        <ele>35.082031</ele>
      </trkpt>
      <trkpt lat="45.76955" lon="-0.82327">
        <ele>34.285156</ele>
      </trkpt>
      <trkpt lat="45.76938" lon="-0.82258">
        <ele>32.539062</ele>
      </trkpt>
      <trkpt lat="45.76937" lon="-0.82242">
        <ele>32.265625</ele>
      </trkpt>
      <trkpt lat="45.76935" lon="-0.82205">
        <ele>31.582031</ele>
      </trkpt>
      <trkpt lat="45.76936" lon="-0.82187">
        <ele>31.265625</ele>
      </trkpt>
      <trkpt lat="45.76935" lon="-0.82174">
        <ele>31.039062</ele>
      </trkpt>
      <trkpt lat="45.76932" lon="-0.82161">
        <ele>30.789062</ele>
      </trkpt>
      <trkpt lat="45.76927" lon="-0.82152">
        <ele>30.5625</ele>
      </trkpt>
      <trkpt lat="45.769" lon="-0.82126">
        <ele>30.066406</ele>
      </trkpt>
      <trkpt lat="45.76856" lon="-0.82082">
        <ele>30.25</ele>
      </trkpt>
      <trkpt lat="45.76827" lon="-0.8205">
        <ele>30.921875</ele>
      </trkpt>
      <trkpt lat="45.76781" lon="-0.81994">
        <ele>31.738281</ele>
      </trkpt>
      <trkpt lat="45.76756" lon="-0.8196">
        <ele>32.191406</ele>
      </trkpt>
      <trkpt lat="45.76744" lon="-0.81944">
        <ele>32.421875</ele>
      </trkpt>
      <trkpt lat="45.76651" lon="-0.81835">
        <ele>33.085938</ele>
      </trkpt>
      <trkpt lat="45.76534" lon="-0.82014">
        <ele>36.03125</ele>
      </trkpt>
      <trkpt lat="45.76497" lon="-0.82058">
        <ele>36.804688</ele>
      </trkpt>
      <trkpt lat="45.76319" lon="-0.82303">
        <ele>39.042969</ele>
      </trkpt>
      <trkpt lat="45.76278" lon="-0.82358">
        <ele>39</ele>
      </trkpt>
      <trkpt lat="45.76272" lon="-0.82367">
        <ele>39</ele>
      </trkpt>
      <trkpt lat="45.7627" lon="-0.82368">
        <ele>39</ele>
        <time>2014-08-25T09:39:53Z</time>
      </trkpt>
      <trkpt lat="45.76264" lon="-0.82361">
        <ele>38.976562</ele>
        <time>2014-08-25T09:39:53Z</time>
      </trkpt>
      <trkpt lat="45.76242" lon="-0.82335">
        <ele>39.070312</ele>
      </trkpt>
      <trkpt lat="45.76227" lon="-0.82323">
        <ele>39.28125</ele>
        <time>2014-08-25T09:39:53Z</time>
      </trkpt>
      <trkpt lat="45.76152" lon="-0.82283">
        <ele>39.007812</ele>
      </trkpt>
      <trkpt lat="45.76106" lon="-0.82265">
        <ele>39.328125</ele>
        <time>2014-08-25T09:39:53Z</time>
      </trkpt>
      <trkpt lat="45.76044" lon="-0.82245">
        <ele>39.683594</ele>
      </trkpt>
      <trkpt lat="45.76019" lon="-0.82237">
        <ele>39.832031</ele>
        <time>2014-08-25T09:39:53Z</time>
      </trkpt>
      <trkpt lat="45.76002" lon="-0.82224">
        <ele>40.074219</ele>
        <time>2014-08-25T09:39:53Z</time>
      </trkpt>
      <trkpt lat="45.75978" lon="-0.82199">
        <ele>40.523438</ele>
      </trkpt>
      <trkpt lat="45.75961" lon="-0.82173">
        <ele>40.976562</ele>
      </trkpt>
      <trkpt lat="45.75946" lon="-0.82152">
        <ele>41</ele>
      </trkpt>
      <trkpt lat="45.75927" lon="-0.82128">
        <ele>41</ele>
      </trkpt>
      <trkpt lat="45.75915" lon="-0.82122">
        <ele>41</ele>
        <time>2014-08-25T09:39:53Z</time>
      </trkpt>
      <trkpt lat="45.75851" lon="-0.82108">
        <ele>41</ele>
        <time>2014-08-25T09:39:53Z</time>
      </trkpt>
      <trkpt lat="45.75815" lon="-0.82094">
        <ele>41</ele>
        <time>2014-08-25T09:39:53Z</time>
      </trkpt>
      <trkpt lat="45.75791" lon="-0.82087">
        <ele>41</ele>
        <time>2014-08-25T09:39:53Z</time>
      </trkpt>
      <trkpt lat="45.75697" lon="-0.82089">
        <ele>40.363281</ele>
        <time>2014-08-25T09:39:53Z</time>
      </trkpt>
      <trkpt lat="45.75675" lon="-0.82086">
        <ele>40.179688</ele>
      </trkpt>
      <trkpt lat="45.75623" lon="-0.82064">
        <ele>39.402344</ele>
      </trkpt>
      <trkpt lat="45.75613" lon="-0.82063">
        <ele>39.222656</ele>
      </trkpt>
      <trkpt lat="45.75606" lon="-0.82062">
        <ele>39.082031</ele>
      </trkpt>
      <trkpt lat="45.75597" lon="-0.82052">
        <ele>39.082031</ele>
        <time>2014-08-25T09:39:53Z</time>
      </trkpt>
      <trkpt lat="45.75557" lon="-0.82002">
        <ele>38.390625</ele>
      </trkpt>
      <trkpt lat="45.75485" lon="-0.81897">
        <ele>35.90625</ele>
      </trkpt>
      <trkpt lat="45.7538" lon="-0.81775">
        <ele>34.152344</ele>
        <time>2014-08-25T09:39:53Z</time>
      </trkpt>
      <trkpt lat="45.75253" lon="-0.81638">
        <ele>36.6875</ele>
        <time>2014-08-25T09:39:53Z</time>
      </trkpt>
      <trkpt lat="45.75242" lon="-0.81628">
        <ele>37.023438</ele>
        <time>2014-08-25T09:39:53Z</time>
      </trkpt>
      <trkpt lat="45.75229" lon="-0.81619">
        <ele>37.1875</ele>
        <time>2014-08-25T09:39:53Z</time>
      </trkpt>
      <trkpt lat="45.75212" lon="-0.81611">
        <ele>37.199219</ele>
      </trkpt>
      <trkpt lat="45.75187" lon="-0.81612">
        <ele>37.140625</ele>
      </trkpt>
      <trkpt lat="45.75168" lon="-0.81618">
        <ele>36.976562</ele>
      </trkpt>
      <trkpt lat="45.75132" lon="-0.81641">
        <ele>36.144531</ele>
        <time>2014-08-25T09:39:53Z</time>
      </trkpt>
      <trkpt lat="45.75118" lon="-0.81646">
        <ele>35.945312</ele>
      </trkpt>
      <trkpt lat="45.75067" lon="-0.81658">
        <ele>34.894531</ele>
      </trkpt>
      <trkpt lat="45.75036" lon="-0.81633">
        <ele>35.246094</ele>
        <time>2014-08-25T09:39:53Z</time>
      </trkpt>
      <trkpt lat="45.75004" lon="-0.8161">
        <ele>35.371094</ele>
        <time>2014-08-25T09:39:53Z</time>
      </trkpt>
      <trkpt lat="45.74997" lon="-0.81607">
        <ele>35.300781</ele>
        <time>2014-08-25T09:39:53Z</time>
      </trkpt>
      <trkpt lat="45.7499" lon="-0.81607">
        <ele>35.171875</ele>
        <time>2014-08-25T09:39:53Z</time>
      </trkpt>
      <trkpt lat="45.74983" lon="-0.8161">
        <ele>35.015625</ele>
      </trkpt>
      <trkpt lat="45.74932" lon="-0.81662">
        <ele>33.105469</ele>
      </trkpt>
      <trkpt lat="45.74922" lon="-0.81668">
        <ele>32.628906</ele>
      </trkpt>
      <trkpt lat="45.74911" lon="-0.81667">
        <ele>32.269531</ele>
      </trkpt>
      <trkpt lat="45.74904" lon="-0.81663">
        <ele>32.167969</ele>
      </trkpt>
      <trkpt lat="45.7488" lon="-0.8164">
        <ele>32.203125</ele>
      </trkpt>
      <trkpt lat="45.74842" lon="-0.81614">
        <ele>32.378906</ele>
      </trkpt>
      <trkpt lat="45.74819" lon="-0.81593">
        <ele>32.523438</ele>
      </trkpt>
      <trkpt lat="45.74814" lon="-0.81583">
        <ele>32.785156</ele>
      </trkpt>
      <trkpt lat="45.74867" lon="-0.81527">
        <ele>34.394531</ele>
      </trkpt>
      <trkpt lat="45.74871" lon="-0.81522">
        <ele>34.558594</ele>
      </trkpt>
      <trkpt lat="45.74874" lon="-0.81515">
        <ele>34.730469</ele>
      </trkpt>
      <trkpt lat="45.74869" lon="-0.81504">
        <ele>34.855469</ele>
      </trkpt>
      <trkpt lat="45.74849" lon="-0.8147">
        <ele>35.457031</ele>
      </trkpt>
      <trkpt lat="45.74836" lon="-0.81437">
        <ele>36.410156</ele>
      </trkpt>
      <trkpt lat="45.74825" lon="-0.814">
        <ele>37.78125</ele>
      </trkpt>
      <trkpt lat="45.74812" lon="-0.81362">
        <ele>38.585938</ele>
      </trkpt>
      <trkpt lat="45.74776" lon="-0.81293">
        <ele>39.828125</ele>
      </trkpt>
      <trkpt lat="45.74766" lon="-0.81294">
        <ele>39.773438</ele>
      </trkpt>
      <trkpt lat="45.74749" lon="-0.81301">
        <ele>39.445312</ele>
      </trkpt>
      <trkpt lat="45.74734" lon="-0.81314">
        <ele>39.171875</ele>
      </trkpt>
      <trkpt lat="45.74723" lon="-0.81322">
        <ele>39.058594</ele>
      </trkpt>
      <trkpt lat="45.74709" lon="-0.81328">
        <ele>39</ele>
      </trkpt>
      <trkpt lat="45.74704" lon="-0.81327">
        <ele>39</ele>
      </trkpt>
      <trkpt lat="45.74698" lon="-0.81322">
        <ele>39</ele>
      </trkpt>
      <trkpt lat="45.74689" lon="-0.81307">
        <ele>39</ele>
      </trkpt>
      <trkpt lat="45.74678" lon="-0.81294">
        <ele>39</ele>
      </trkpt>
      <trkpt lat="45.74651" lon="-0.81261">
        <ele>39.359375</ele>
      </trkpt>
      <trkpt lat="45.7464" lon="-0.81273">
        <ele>39.132812</ele>
      </trkpt>
      <trkpt lat="45.74635" lon="-0.81275">
        <ele>39.09375</ele>
        <time>2014-08-25T09:39:53Z</time>
      </trkpt>
      <trkpt lat="45.74616" lon="-0.81233">
        <ele>39.234375</ele>
        <time>2014-08-25T09:39:53Z</time>
      </trkpt>
    </trkseg>
  </trk>
</gpx>